Molonglo, Australia

5:59 AM AEST on June 27, 2017 (GMT +1000)
Molonglo

Weather History for 94926 - December, 2013

Change the Weather History Date:

Thursday, December 12, 2013

  Actual Average Record
Temperature  
Mean Temperature 60 °F -  
Max Temperature 80 °F 80 °F - ()
Min Temperature 40 °F 53 °F - ()
Degree Days  
Heating Degree Days 5    
Growing Degree Days 10 (Base 50)    
Moisture  
Dew Point 40 °F    
Average Humidity 48    
Maximum Humidity 93    
Minimum Humidity 13    
Precipitation  
Precipitation 0.00 in 0.07 in - ()
Sea Level Pressure  
Sea Level Pressure 29.85 in    
Wind  
Wind Speed 6 mph ()    
Max Wind Speed 18 mph    
Max Gust Speed -    
Visibility 6.2 miles    
Events      
T = Trace of Precipitation, MM = Missing Value Source: Averaged Metar Reports

Daily Weather History Graph

Daily Weather History Graph

Search for Another Location

Airport or City:

Trip Planner

Search our weather history database for the weather conditions in past years. The results will help you decide how hot, cold, wet, or windy it might be!

Date:

Astronomy

Dec. 12, 2013 Rise Set
Actual Time 5:41 AM AEDT 8:11 PM AEDT
Civil Twilight 5:12 AM AEDT 8:41 PM AEDT
Nautical Twilight 4:35 AM AEDT 9:18 PM AEDT
Astronomical Twilight 3:54 AM AEDT 9:59 PM AEDT
Moon 3:24 PM AEDT (12/12) 2:09 AM AEDT (12/12)
Length of Visible Light 15h 29m
Length of Day
14h 30m
Waxing Gibbous, 74% of the Moon is Illuminated
Dec 12
Waxing Gibbous
Dec 17
Full
Dec 26
Last Quarter
Jan 1
New
Jan 8
First Quarter

Hourly Weather History & Observations

Time (AEDT) Temp. Windchill Dew Point Humidity Pressure Visibility Wind Dir Wind Speed Gust Speed Precip Events Conditions
12:00 AM 51 °F - 39 °F 54% 29.84 in - NE 4.6 mph - -  
12:00 AM 50.0 °F - 39.2 °F 66% 29.89 in 6.2 mi NE 4.6 mph - N/A   Unknown
12:30 AM 48.2 °F - 37.4 °F 66% 29.89 in 6.2 mi ENE 4.6 mph - N/A   Unknown
1:00 AM 50.0 °F - 39.2 °F 66% 29.89 in 6.2 mi ENE 5.8 mph - N/A   Unknown
1:30 AM 46.4 °F 44.3 °F 37.4 °F 71% 29.89 in 6.2 mi NNW 4.6 mph - N/A   Unknown
2:00 AM 45 °F - 38 °F 68% 29.83 in - WNW 2.3 mph - -  
2:00 AM 44.6 °F - 37.4 °F 76% 29.89 in 6.2 mi WNW 2.3 mph - N/A   Unknown
2:30 AM 46.4 °F 44.3 °F 39.2 °F 76% 29.89 in 6.2 mi SSE 4.6 mph - N/A   Unknown
3:00 AM 43 °F - 38 °F 77% 29.82 in - South 5.8 mph - -  
3:00 AM 42.8 °F 39.3 °F 39.2 °F 87% 29.86 in 6.2 mi South 5.8 mph - N/A   Unknown
3:30 AM 44.6 °F 43.1 °F 41.0 °F 87% 29.86 in 6.2 mi SSE 3.5 mph - N/A   Unknown
4:00 AM 44.6 °F 43.1 °F 41.0 °F 87% 29.86 in 6.2 mi ESE 3.5 mph - N/A   Unknown
4:30 AM 44.6 °F 42.2 °F 41.0 °F 87% 29.86 in - South 4.6 mph - N/A   Clear
5:00 AM 44 °F - 42 °F 91% 29.82 in - ESE 1.2 mph - -  
5:00 AM 44.6 °F - 42.8 °F 93% 29.89 in - ESE 1.2 mph - N/A   Clear
5:30 AM 42.8 °F - 39.2 °F 87% 29.89 in 6.2 mi ESE 1.2 mph - N/A   Partly Cloudy
6:00 AM 43 °F - 42 °F 93% 29.83 in - Calm Calm - -  
6:00 AM 42.8 °F - 41.0 °F 93% 29.89 in - Calm Calm - N/A   Clear
6:30 AM 44.6 °F - 42.8 °F 93% 29.89 in - Calm Calm - N/A   Clear
7:00 AM 48.2 °F - 44.6 °F 87% 29.89 in - Calm Calm - N/A   Clear
7:30 AM 51.8 °F - 46.4 °F 82% 29.92 in - Calm Calm - N/A   Clear
8:00 AM 56 °F - 47 °F 64% 29.85 in - NNE 3.5 mph - -  
8:00 AM 55.4 °F - 46.4 °F 72% 29.92 in - NNE 3.5 mph - N/A   Clear
8:30 AM 59.0 °F - 46.4 °F 63% 29.92 in - NNE 3.5 mph - N/A   Clear
9:00 AM 62 °F - 48 °F 49% 29.86 in - NW 4.6 mph - -  
9:00 AM 62.6 °F - 48.2 °F 59% 29.92 in - NW 4.6 mph - N/A   Clear
9:30 AM 64.4 °F - 44.6 °F 49% 29.92 in - WNW 4.6 mph - N/A   Clear
10:00 AM 66.2 °F - 42.8 °F 43% 29.89 in - NW 8.1 mph - N/A   Clear
10:30 AM 69.8 °F - 42.8 °F 38% 29.89 in - WSW 10.4 mph - N/A   Clear
11:00 AM 69 °F - 44 °F 29% 29.83 in - NW 15.0 mph - -  
11:00 AM 69.8 °F - 44.6 °F 40% 29.89 in - NW 15.0 mph - N/A   Clear
11:30 AM 69.8 °F - 44.6 °F 40% 29.89 in - NNW 9.2 mph - N/A   Clear
12:00 PM 73 °F - 44 °F 25% 29.82 in - WNW 11.5 mph - -  
12:00 PM 73.4 °F - 44.6 °F 36% 29.86 in - WNW 11.5 mph - N/A   Clear
12:30 PM 75.2 °F - 42.8 °F 31% 29.86 in - West 12.7 mph - N/A   Clear
1:00 PM 75.2 °F - 39.2 °F 27% 29.86 in - West 16.1 mph - N/A   Clear
1:30 PM 77.0 °F - 37.4 °F 24% 29.83 in - West 13.8 mph - N/A   Clear
2:00 PM 78 °F - 36 °F 13% 29.78 in - West 15.0 mph - -  
2:00 PM 77.0 °F - 35.6 °F 22% 29.83 in - West 15.0 mph - N/A   Clear
2:30 PM 77.0 °F - 37.4 °F 24% 29.83 in - WNW 15.0 mph - N/A   Clear
3:00 PM 80 °F - 41 °F 15% 29.76 in - West 16.1 mph - -  
3:00 PM 78.8 °F - 41.0 °F 26% 29.83 in - West 16.1 mph - N/A   Clear
3:30 PM 78.8 °F - 39.2 °F 24% 29.80 in - WNW 17.3 mph - N/A   Clear
4:00 PM 78.8 °F - 37.4 °F 23% 29.80 in - WNW 16.1 mph - N/A   Clear
4:30 PM 78.8 °F - 39.2 °F 24% 29.80 in - WNW 18.4 mph - N/A   Clear
5:00 PM 78 °F - 37 °F 14% 29.75 in - WNW 16.1 mph - -  
5:00 PM 78.8 °F - 37.4 °F 23% 29.80 in - WNW 16.1 mph - N/A   Clear
5:30 PM 77.0 °F - 39.2 °F 26% 29.80 in - WNW 17.3 mph - N/A   Clear
6:00 PM 78 °F - 38 °F 14% 29.75 in - WNW 12.7 mph - -  
6:00 PM 77.0 °F - 37.4 °F 24% 29.80 in - WNW 12.7 mph - N/A   Clear
6:30 PM 77.0 °F - 37.4 °F 24% 29.80 in - WNW 11.5 mph - N/A   Clear
7:00 PM 77.0 °F - 37.4 °F 24% 29.80 in - WNW 15.0 mph - N/A   Clear
7:30 PM 75.2 °F - 35.6 °F 24% 29.83 in - WNW 13.8 mph - N/A   Clear
8:00 PM 72 °F - 36 °F 16% 29.79 in - WNW 11.5 mph - -  
8:00 PM 71.6 °F - 35.6 °F 27% 29.83 in - WNW 11.5 mph - N/A   Clear
8:30 PM 69.8 °F - 33.8 °F 27% 29.86 in - WNW 10.4 mph - N/A   Clear
9:00 PM 67 °F - 34 °F 18% 29.81 in - WNW 10.4 mph - -  
9:00 PM 68.0 °F - 33.8 °F 28% 29.86 in 6.2 mi WNW 10.4 mph - N/A   Unknown
9:30 PM 64.4 °F - 37.4 °F 37% 29.86 in 6.2 mi West 8.1 mph - N/A   Unknown
10:00 PM 59.0 °F - 37.4 °F 45% 29.89 in 6.2 mi NW 4.6 mph - N/A   Unknown
10:30 PM 59.0 °F - 37.4 °F 45% 29.89 in 6.2 mi ENE 4.6 mph - N/A   Unknown
11:00 PM 54 °F - 36 °F 38% 29.84 in - North 4.6 mph - -  
11:00 PM 53.6 °F - 35.6 °F 51% 29.89 in 6.2 mi North 4.6 mph - N/A   Unknown
11:30 PM 57.2 °F - 39.2 °F 51% 29.89 in 6.2 mi North 6.9 mph - N/A   Unknown